Location: Zagreb
(45.8000°N, 16.0000°E)
Time: 07:23:05
(UTC+01:00)

N. Korean satellite - Pass Details

Date: 09 December 2021
Orbit: 447 x 491 km, 97.3° (Epoch: 23 January)

Event Time Altitude Azimuth Distance (km) Brightness Sun altitude
Rises 04:59:52 0° 16° (NNE) 2,461 10.2 -24.4°
Reaches altitude 10° 05:01:57 10° 22° (NNE) 1,583 9.3 -24.0°
Maximum altitude 05:05:16 53° 100° (E) 558 7.1 -23.5°
Drops below altitude 10° 05:08:34 10° 178° (S) 1,573 9.3 -22.9°
Sets 05:10:37 0° 184° (S) 2,444 10.2 -22.5°
